GFSGBSN_500_spd_273.txt.gz
Wind_Speed
9 7 7 7 6 6 6 7 7 7 7 7 8 8 10 10 10 10 9 8 7 7 6 5 4 4 5 5 3 5 9 8 7 4 2 2 5 5 13 1 5 12 13 18 17 18 18
13 12 11 9 7 7 6 6 7 7 7 8 8 8 9 10 10 10 9 9 8 7 5 4 3 3 4 1 2 3 6 9 7 8 5 2 4 12 7 9 4 5 8 10 9 19 14
11 12 13 13 12 10 8 6 5 5 5 6 7 8 10 10 11 11 9 9 8 7 7 6 5 4 3 2 1 2 3 4 8 9 8 7 3 5 11 4 7 5 5 5 9 5 9
5 7 9 10 11 12 11 10 8 6 4 4 6 8 9 9 10 10 9 8 8 9 9 9 8 7 5 5 4 1 3 4 8 11 8 8 8 5 4 5 6 5 7 3 7 8 7
2 2 4 6 8 9 9 10 10 10 8 7 6 6 7 7 8 8 7 7 8 8 8 7 7 7 6 6 6 6 3 2 1 2 3 4 8 9 8 6 8 8 8 11 0 5 8
3 2 2 2 3 4 5 7 7 7 8 8 8 7 8 9 10 9 9 10 9 9 7 6 6 6 6 6 8 6 6 4 2 1 3 2 5 11 9 7 3 9 10 9 3 4 3
6 4 3 2 3 4 4 4 4 5 5 5 6 6 6 6 7 8 9 8 8 9 8 9 9 5 4 6 5 7 7 6 5 4 3 2 4 6 9 10 9 6 12 12 12 9 3
7 7 5 4 3 2 1 1 3 4 4 4 5 5 6 6 7 7 7 7 7 7 7 9 8 9 7 6 6 4 8 9 9 7 5 5 5 4 1 5 11 12 11 14 12 9 9
7 7 8 8 7 6 5 4 3 3 5 6 7 7 7 7 7 7 7 6 6 6 7 7 6 6 6 5 5 4 6 8 8 8 9 8 8 6 7 6 11 15 13 14 10 11 12
10 9 8 9 8 9 9 8 8 7 7 6 7 8 9 9 8 8 7 7 6 7 5 6 6 5 3 3 3 2 4 5 9 12 12 12 10 12 9 9 11 10 10 10 9 7 12
14 13 12 12 10 9 9 8 8 9 9 9 9 10 9 10 12 11 9 8 8 8 7 8 8 9 8 6 5 2 2 5 7 10 11 12 10 10 9 11 15 11 10 9 6 3 11
18 17 16 16 15 13 12 11 10 10 10 10 12 11 12 13 13 11 11 10 11 12 15 14 15 13 11 10 9 7 6 6 4 4 9 11 9 7 8 12 15 13 10 11 5 4 7
19 19 19 19 18 18 17 15 14 14 14 12 12 14 14 14 15 16 15 14 15 17 17 18 16 18 17 15 12 12 11 11 9 9 10 10 7 6 8 10 15 17 15 14 11 9 7
18 18 18 19 19 19 19 19 18 18 18 16 17 17 15 17 17 17 17 19 20 23 21 20 16 17 20 19 18 16 15 15 16 16 14 11 11 11 12 15 15 19 20 16 15 13 13
17 18 17 17 17 18 18 18 18 19 20 20 20 21 20 20 20 19 20 20 24 25 24 24 22 22 23 24 27 23 20 19 20 19 19 16 16 18 16 16 17 16 19 19 20 18 19
17 16 17 17 17 18 18 18 17 18 20 20 20 20 21 20 19 19 21 21 26 29 28 26 25 25 24 24 25 25 24 25 27 26 27 25 21 22 20 22 21 18 18 20 21 21 22
19 19 19 18 18 19 19 19 19 19 21 21 21 21 21 20 21 22 23 23 27 30 30 29 29 28 26 26 27 27 26 24 29 33 34 31 31 24 29 29 24 24 24 22 24 23 21
21 21 22 21 21 21 21 20 21 21 23 23 23 23 24 25 26 26 27 28 29 33 34 35 34 33 33 32 31 31 29 29 31 33 33 34 35 32 32 32 31 29 29 29 26 24 25
25 23 23 24 24 24 24 24 24 25 25 25 24 25 28 30 30 30 31 31 31 33 39 39 41 41 41 41 40 40 39 38 37 37 38 37 39 35 33 39 38 37 33 32 30 31 31
25 27 27 27 26 26 26 26 26 25 25 25 27 27 28 28 29 30 32 33 34 37 40 42 44 45 46 47 48 48 47 47 47 46 45 45 44 43 42 35 35 38 38 36 37 39 32
29 28 29 30 30 29 27 27 27 28 28 29 30 30 29 28 27 27 28 29 28 30 32 36 40 45 47 49 50 52 52 52 54 53 52 52 52 52 51 47 39 41 42 42 42 41 42
34 33 30 30 31 31 30 30 29 29 28 28 29 29 29 30 30 29 28 27 29 31 33 37 39 41 44 47 49 52 54 54 52 54 59 60 58 58 57 54 52 48 46 47 48 47 44
33 36 35 32 32 32 32 31 31 30 30 29 28 29 29 30 31 31 32 33 34 35 36 37 41 44 46 50 52 54 54 54 54 53 54 59 66 67 66 59 56 57 56 53 47 49 50
34 35 36 36 33 33 32 32 32 31 30 29 29 29 29 30 30 31 32 33 35 38 36 36 39 39 41 44 48 52 55 56 56 55 52 51 54 65 74 71 66 60 56 57 57 54 55
33 33 34 35 32 32 32 32 31 30 30 30 31 30 29 28 29 30 29 30 34 37 40 38 37 40 42 42 46 49 52 55 54 54 52 52 53 56 61 67 76 69 63 60 62 63 58
32 31 31 30 30 31 31 31 31 31 31 31 31 29 28 28 28 29 30 31 32 34 36 38 38 39 40 40 42 44 48 52 57 54 52 53 54 56 56 64 69 75 66 62 62 64 65
28 27 28 29 30 30 31 31 30 31 30 29 27 27 28 28 28 29 30 33 34 37 39 38 36 38 36 36 37 38 39 43 47 51 50 50 52 55 53 56 65 70 69 66 58 68 66
26 26 26 25 25 26 28 28 27 27 26 26 25 26 27 29 31 31 33 35 37 40 41 37 36 37 38 38 38 40 39 38 40 43 46 46 47 46 51 55 59 61 65 63 66 65 60
24 23 19 20 20 23 23 25 23 23 25 26 27 28 30 32 33 33 35 37 38 40 36 34 36 37 37 38 39 41 43 40 38 39 40 42 41 40 42 47 49 51 60 65 63 65 60

GFSGBSN_500_spd_276.txt.gz
Wind_Speed
8 6 6 6 6 6 7 8 8 8 7 7 8 8 9 9 8 8 7 5 5 4 3 3 3 2 4 4 7 7 5 10 13 11 8 4 3 8 2 2 6 12 15 18 12 16 15
11 9 7 6 6 5 6 7 8 8 8 8 8 8 9 9 9 9 8 6 6 6 4 2 1 2 3 3 6 6 7 10 11 13 11 7 5 4 9 9 6 7 12 16 12 15 14
9 10 10 9 7 6 5 5 6 6 7 8 8 8 9 10 10 9 8 8 8 7 7 5 3 2 2 2 3 5 6 9 11 11 12 8 7 4 8 5 6 6 9 8 13 12 11
6 6 6 8 8 8 7 6 4 4 5 6 8 9 9 9 10 9 9 9 10 10 10 8 7 6 5 3 2 2 3 4 6 7 2 3 3 2 4 2 3 2 1 7 8 7 8
5 4 3 3 4 6 7 8 7 5 4 3 3 5 7 9 10 10 10 11 11 11 10 9 7 7 5 4 3 2 1 2 4 6 4 2 3 3 3 5 2 2 1 4 10 7 8
5 4 3 2 1 2 3 4 5 6 6 6 5 4 5 6 7 8 8 8 8 8 8 7 6 6 6 5 5 2 3 1 3 3 4 2 4 3 7 5 1 5 8 9 10 9 6
6 5 3 2 2 2 2 1 1 1 3 5 5 6 6 6 7 7 8 8 7 7 7 7 9 9 6 5 5 5 5 4 3 2 3 3 4 3 4 6 2 2 4 10 13 7 5
6 7 6 5 4 3 1 1 3 3 2 1 3 4 5 6 7 7 8 8 8 8 7 7 7 6 7 7 7 6 6 6 5 2 2 2 3 2 3 5 9 8 6 5 12 13 12
7 7 7 7 8 7 7 6 4 4 4 5 4 4 4 5 6 6 7 7 8 8 8 8 9 8 8 7 7 7 8 9 7 6 7 6 5 4 3 1 5 14 13 10 4 10 15
11 10 9 8 8 8 8 9 8 8 7 7 6 7 7 7 7 7 7 7 7 9 9 9 8 8 7 8 7 5 6 8 9 10 10 7 5 4 2 0 3 11 15 14 9 8 11
16 15 15 14 12 10 10 9 8 9 9 10 9 9 9 10 10 9 10 9 8 9 12 11 11 10 8 7 7 5 6 7 10 11 10 7 4 5 6 6 5 11 12 8 11 9 13
21 20 19 19 18 16 14 13 12 11 10 11 11 12 12 13 11 12 13 13 13 14 15 12 11 10 9 9 8 7 7 6 5 5 8 9 6 3 3 4 4 11 13 10 6 6 6
22 23 23 22 21 20 19 17 17 16 15 14 16 13 14 15 16 16 15 16 17 18 16 15 14 14 14 14 14 13 12 11 9 9 10 13 7 6 8 8 8 10 15 13 8 6 10
19 21 23 24 24 24 24 23 21 20 20 17 19 20 17 19 19 19 20 21 22 21 20 17 16 17 18 17 18 18 18 15 13 12 14 13 12 10 9 10 13 14 16 15 11 8 11
17 18 20 21 22 22 23 23 24 23 24 22 21 22 22 22 22 22 23 23 25 26 25 22 22 23 23 22 20 20 21 21 20 20 18 19 18 18 14 15 17 17 16 17 19 15 13
19 18 18 18 20 20 20 21 22 23 24 24 22 23 22 22 23 23 25 26 28 27 27 25 25 26 27 27 24 23 25 27 26 25 26 24 24 24 22 21 21 17 17 20 21 23 19
20 20 19 19 19 19 18 18 19 19 20 21 21 22 21 22 22 23 24 26 28 28 28 29 28 28 29 29 28 27 23 27 30 31 29 28 28 27 28 27 25 24 22 23 27 29 23
24 23 21 21 21 22 22 22 21 21 22 22 22 22 22 23 25 25 26 27 28 29 30 32 32 30 28 28 28 28 29 31 29 31 33 33 33 27 30 30 32 31 31 31 31 27 27
26 25 25 25 25 24 25 26 25 25 25 25 26 26 26 28 29 29 30 32 33 34 35 36 38 37 37 37 36 35 35 35 34 34 35 36 38 35 31 33 36 38 34 34 34 34 33
27 25 26 27 29 28 27 28 29 29 28 27 27 28 29 30 30 31 33 35 37 38 40 41 42 43 43 44 44 44 44 43 43 41 41 41 41 41 40 38 37 40 40 39 39 41 37
32 32 31 30 29 29 31 30 31 30 31 30 30 31 31 31 32 34 35 35 35 36 37 38 40 41 42 43 44 46 48 50 49 49 49 50 49 49 47 46 45 43 42 41 43 42 44
30 30 30 33 34 33 31 31 32 32 33 32 32 32 33 33 33 33 33 32 32 32 34 33 34 36 38 40 42 44 46 47 49 52 53 55 56 57 57 54 55 53 49 47 46 46 48
31 30 30 31 31 34 36 34 33 34 34 34 33 33 34 34 35 34 33 33 33 32 34 36 37 39 42 44 46 48 50 51 52 53 54 55 57 59 62 64 64 63 60 55 54 54 53
29 31 32 32 33 34 36 37 37 35 35 34 35 35 36 36 35 35 35 35 35 34 34 37 37 38 40 42 45 47 50 51 54 54 56 59 59 60 62 63 67 64 64 64 60 60 58
29 32 33 34 35 34 35 36 37 36 35 35 35 34 34 35 36 36 36 35 35 35 34 35 36 36 37 39 41 43 45 47 49 51 52 54 56 57 59 63 66 65 64 65 67 65 64
31 32 34 34 33 32 32 31 32 33 33 33 34 33 33 34 35 35 36 35 34 34 34 33 34 34 34 36 40 44 46 48 50 50 49 51 55 57 58 60 63 61 61 59 63 63 66
31 32 31 31 28 27 27 29 29 29 30 32 32 33 32 32 32 32 32 33 33 33 34 35 36 37 38 42 43 44 45 47 47 47 47 44 44 46 46 51 58 58 59 57 60 66 62
29 29 27 26 23 22 23 23 22 24 27 30 31 30 30 31 30 30 31 31 32 33 35 36 37 40 42 43 42 42 41 41 42 42 44 44 47 43 43 45 48 47 52 57 56 59 63
25 22 22 22 19 19 19 20 22 23 22 26 28 26 27 29 30 30 32 33 35 36 37 39 40 41 38 36 38 40 42 42 42 43 44 45 47 47 48 45 42 43 46 52 54 56 58

GFSGBSN_500_spd_279.txt.gz
Wind_Speed
4 3 4 6 6 7 8 9 10 10 10 9 8 8 8 7 7 6 6 4 3 4 3 4 6 7 9 5 6 7 10 12 9 7 9 7 5 4 10 10 12 13 12 14 11 11 13
9 6 4 4 5 5 6 8 9 9 9 8 8 8 8 9 8 7 7 5 5 5 4 2 3 6 9 9 6 5 9 14 11 6 4 4 2 7 8 10 11 12 13 10 10 12 12
10 9 8 6 4 5 6 6 6 7 8 7 7 8 8 9 8 7 7 6 7 7 5 2 0 1 5 9 9 6 6 16 12 10 6 3 2 4 10 12 8 10 9 9 11 11 11
8 7 8 7 7 5 4 4 4 4 5 7 7 8 9 9 9 9 8 8 9 8 6 5 4 3 2 5 6 8 6 10 13 12 9 7 10 9 12 10 6 6 10 9 9 8 10
7 6 5 5 5 6 5 5 4 3 3 5 6 8 9 10 10 10 10 10 10 11 10 8 6 3 2 3 5 5 7 8 8 8 7 7 5 10 12 10 4 6 6 8 9 10 10
6 6 6 5 4 3 3 3 4 4 4 4 4 4 5 6 8 9 10 11 11 10 9 8 7 6 6 4 5 6 5 7 7 6 4 2 3 4 10 7 4 4 3 15 9 11 10
3 4 4 4 4 3 3 3 1 2 2 3 4 4 4 5 7 8 8 9 10 9 9 8 10 10 8 6 6 5 5 6 7 6 4 2 3 4 6 8 6 5 7 10 15 13 7
2 1 2 2 2 2 2 2 3 4 1 2 2 4 5 6 7 8 8 7 7 8 8 9 8 8 8 7 7 7 6 5 5 6 4 3 2 5 7 7 6 6 4 2 12 12 14
6 5 4 4 4 4 4 4 3 3 3 4 3 3 3 5 6 7 7 6 6 7 7 9 11 10 9 7 6 5 5 5 4 4 3 2 2 2 4 4 4 8 8 7 4 7 13
12 10 9 8 7 6 7 6 6 5 5 4 4 4 5 5 5 6 7 7 7 8 9 9 9 9 8 7 6 5 5 4 4 5 1 1 3 5 3 2 2 6 7 8 7 6 7
17 16 15 14 12 11 9 8 9 7 7 7 7 7 6 7 8 9 9 9 9 10 11 11 10 9 8 9 8 6 6 6 4 4 6 6 3 5 4 3 2 2 3 8 12 13 10
21 21 20 19 18 17 16 14 13 12 10 11 9 10 11 10 10 12 13 13 12 12 12 10 9 10 10 9 10 10 8 6 5 3 6 6 4 3 5 6 4 2 2 3 5 8 9
20 22 24 24 23 22 21 18 18 17 15 15 16 12 14 14 14 14 15 16 17 16 14 13 12 12 11 10 10 10 10 10 10 9 10 9 6 7 7 5 5 5 6 6 5 7 10
20 22 23 24 25 25 25 23 22 22 20 19 20 19 18 18 18 18 18 20 19 18 17 16 15 15 15 14 14 13 13 14 13 14 14 12 11 9 9 8 10 10 8 6 8 7 12
20 20 21 22 23 24 25 25 25 25 23 22 22 22 22 22 21 22 22 23 22 23 22 20 21 20 19 17 15 15 16 17 18 19 18 17 17 16 14 13 15 12 14 13 11 9 10
20 20 19 19 20 21 23 23 23 24 24 22 22 21 22 23 23 24 25 25 25 24 24 23 25 26 25 24 22 22 22 23 22 23 23 21 22 21 19 19 19 18 17 18 17 17 12
22 22 20 19 19 20 20 21 20 21 22 21 21 20 20 22 23 24 25 26 26 26 27 26 26 27 27 26 24 24 26 25 24 23 24 23 24 23 24 22 24 23 23 24 24 24 20
24 23 23 21 20 19 21 21 20 20 21 19 20 21 21 22 23 24 25 25 25 25 25 27 26 25 26 26 26 26 27 27 25 26 26 26 26 24 26 27 28 26 26 28 29 29 29
26 26 26 24 23 22 22 23 23 24 23 23 23 23 23 25 26 26 27 28 29 29 30 31 31 31 31 32 32 32 31 30 30 29 30 30 32 29 28 30 32 33 31 32 33 34 33
27 26 26 27 26 25 24 27 28 27 27 28 27 27 26 27 28 30 30 31 32 33 34 35 36 36 37 38 39 40 39 38 37 37 37 38 38 38 37 36 34 35 37 38 39 40 35
27 25 26 29 30 29 28 27 28 30 31 30 30 30 29 29 30 30 32 34 35 35 36 37 38 40 41 41 41 41 43 43 43 43 43 44 44 45 44 44 44 44 42 42 43 43 46
29 30 32 30 29 29 29 31 31 30 29 32 32 32 31 31 32 33 34 35 37 39 39 39 39 39 40 40 40 40 40 42 43 44 45 46 48 48 48 49 51 52 51 51 50 50 51
31 34 35 34 31 30 30 31 31 33 34 33 33 35 36 35 34 34 34 35 36 38 38 39 38 39 39 39 38 39 39 41 43 44 46 48 50 51 51 52 54 57 55 54 56 56 56
27 28 30 30 31 32 33 33 33 34 36 36 36 36 35 36 37 36 37 37 37 37 39 40 40 39 40 40 42 42 43 44 45 45 47 50 50 53 55 55 59 57 57 58 59 59 59
24 25 26 28 30 31 33 34 35 36 35 37 37 37 37 37 37 38 38 38 38 38 38 40 41 41 41 41 42 43 43 44 43 43 44 45 47 50 52 54 55 54 55 57 58 61 61
23 25 25 27 29 31 32 32 33 33 33 33 34 34 35 35 35 36 36 37 37 36 37 38 39 40 40 40 40 39 39 39 40 41 42 45 48 50 54 54 56 55 54 54 54 59 58
24 24 26 27 30 31 32 30 29 28 28 30 31 31 32 32 33 34 34 34 34 35 36 36 37 36 36 37 38 39 41 42 43 44 45 46 47 49 50 52 54 52 51 52 53 54 55
25 27 27 27 27 27 26 24 24 22 22 23 23 25 27 29 31 32 32 32 33 33 34 34 34 35 37 38 39 40 42 44 45 46 45 45 46 45 46 48 48 43 44 47 50 51 54
25 25 25 24 23 21 21 20 19 19 20 21 19 19 20 23 25 27 28 29 31 32 33 34 36 37 38 39 40 42 42 43 43 43 45 46 47 46 48 45 45 45 47 48 48 47 49

GFSGBSN_500_spd_285.txt.gz
Wind_Speed
4 4 4 5 6 8 9 9 9 9 9 8 7 6 6 6 6 6 4 2 4 6 7 4 2 4 6 10 8 10 9 8 8 9 6 7 12 18 3 2 6 8 8 9 10 10 14
3 2 3 4 5 6 7 8 9 9 9 9 8 6 6 5 5 5 3 2 5 9 7 7 4 2 3 7 6 11 11 9 7 7 6 7 7 11 7 7 3 5 6 6 8 8 10
8 5 3 2 4 5 6 7 8 9 9 10 9 8 7 7 6 5 5 4 5 9 8 7 5 3 3 4 6 12 13 11 9 7 5 5 6 12 6 3 3 3 6 4 4 5 8
8 8 7 5 3 3 4 6 7 8 10 11 10 10 9 8 8 8 7 6 7 8 9 8 6 5 5 6 4 7 11 10 9 8 7 5 9 13 12 6 3 3 5 8 8 1 4
6 6 6 6 6 4 3 3 4 6 8 9 10 10 11 11 11 10 10 9 9 10 10 8 7 7 7 8 6 5 6 7 7 6 6 2 6 8 6 6 7 6 5 5 7 3 2
5 6 5 5 5 5 5 5 3 3 4 6 8 9 10 11 12 12 12 12 12 12 12 11 10 9 10 11 10 8 8 7 7 6 4 2 4 10 5 15 3 3 9 7 9 8 6
5 4 4 5 5 5 5 4 3 3 3 2 2 4 5 6 8 11 12 12 12 12 13 13 13 13 14 12 12 12 11 10 8 6 3 4 10 6 11 14 5 2 0 10 9 7 5
7 6 5 5 4 4 4 4 4 3 2 2 1 2 2 3 3 4 5 6 8 10 11 11 11 12 13 12 13 12 11 10 9 8 6 6 6 19 21 15 8 4 7 8 7 8 7
10 9 8 7 6 4 3 3 3 3 3 3 2 2 3 3 5 5 5 4 3 5 7 9 10 10 11 11 12 11 11 10 9 9 8 12 13 6 10 14 9 4 3 2 1 5 3
12 12 11 10 9 8 7 6 5 5 5 5 4 4 4 4 4 4 4 4 5 4 5 6 9 10 10 11 12 11 11 10 8 7 7 8 9 10 10 9 10 3 14 13 4 2 12
15 15 15 15 14 12 11 10 8 8 7 7 7 6 6 6 6 6 6 6 6 5 4 6 5 9 8 8 10 9 9 10 9 9 8 8 8 9 9 8 9 9 12 13 13 4 7
15 16 17 18 17 16 16 14 13 12 10 10 10 10 9 9 8 9 9 8 6 5 9 6 7 6 7 6 6 7 7 8 8 9 10 10 10 9 5 6 5 8 7 6 3 4 5
16 16 17 18 19 19 19 19 18 17 17 15 14 14 13 12 12 11 11 12 11 10 8 9 7 8 9 8 8 8 7 7 7 7 6 7 10 9 6 5 4 4 6 3 5 3 4
18 18 18 18 19 19 20 21 22 20 20 20 19 18 17 17 16 15 16 15 14 15 14 13 12 12 11 11 10 9 10 10 9 7 7 7 7 10 10 9 7 5 5 8 4 3 8
19 18 18 18 18 19 20 21 22 22 22 21 21 22 22 21 20 20 19 18 18 22 18 16 16 15 15 14 15 14 15 15 13 11 10 10 10 8 11 11 10 8 9 9 10 10 7
19 20 19 19 18 18 18 19 21 23 23 22 22 22 22 22 22 22 23 21 25 20 19 20 20 20 18 19 18 18 19 18 17 16 15 17 15 18 14 13 14 14 12 8 9 8 6
22 20 20 18 17 18 17 17 18 21 22 22 23 23 22 22 23 23 22 24 26 21 22 22 23 25 21 19 22 22 20 26 22 21 20 20 19 21 17 18 17 17 16 14 15 15 11
23 23 22 20 18 18 17 17 16 18 20 22 22 24 24 23 23 24 24 29 20 24 24 25 25 25 26 27 26 24 19 30 23 25 24 24 23 22 23 19 23 20 17 13 14 13 12
24 24 24 24 21 19 18 17 16 17 19 22 23 24 24 24 25 26 29 25 24 25 26 26 27 26 27 26 27 28 30 36 22 26 29 25 24 22 19 17 26 25 26 26 23 18 19
24 24 25 26 24 23 21 18 17 17 18 21 24 25 26 26 27 26 27 27 27 27 27 28 29 25 29 30 29 33 31 34 28 31 26 29 26 27 20 16 19 30 30 26 27 21 19
25 24 24 25 26 25 25 23 20 20 21 22 22 27 26 28 29 30 29 29 28 29 29 30 31 30 33 33 34 35 36 42 31 35 33 36 35 34 35 33 38 28 36 28 31 30 30
25 25 24 24 24 25 26 27 25 21 22 23 23 24 26 28 30 31 32 33 32 32 29 32 30 34 31 33 38 40 37 39 38 41 38 38 39 40 42 42 43 46 47 46 47 46 44
26 25 25 26 25 26 27 27 29 27 23 24 25 26 26 28 29 30 34 34 35 34 34 35 33 34 34 38 33 34 38 38 39 40 40 37 40 42 41 43 44 45 46 46 49 47 47
28 27 28 27 27 27 27 28 30 29 28 28 27 28 28 30 32 33 33 35 36 37 39 37 37 36 37 33 36 36 38 38 39 39 39 39 41 41 41 41 46 36 36 43 48 44 43
24 25 26 26 25 25 25 26 28 29 29 30 31 31 32 33 34 35 35 37 38 39 39 39 40 39 39 39 38 38 37 39 39 41 41 40 42 44 45 45 45 45 44 45 47 47 49
21 22 22 22 22 23 24 25 26 27 27 27 29 30 31 33 34 34 36 36 37 38 37 38 38 38 38 37 38 38 37 38 42 43 40 41 43 45 46 45 45 36 42 51 50 47 48
23 23 23 23 23 23 23 24 26 28 28 29 30 31 32 33 33 33 33 33 34 34 36 33 33 33 34 35 35 35 35 37 39 39 41 39 40 42 43 46 44 33 50 53 47 47 51
24 24 25 25 24 23 23 23 25 27 28 29 30 31 30 31 29 29 30 30 30 31 32 27 30 31 31 31 33 32 36 35 39 38 38 41 41 42 43 44 42 47 51 53 57 54 52
26 26 26 26 26 26 27 27 26 25 26 25 26 27 26 26 24 25 25 24 25 25 26 26 27 26 27 29 30 32 35 36 38 40 42 43 44 46 47 39 50 51 52 53 55 55 56

GFSGBSN_500_spd_291.txt.gz
Wind_Speed
5 5 5 7 9 11 12 11 10 9 9 8 8 7 7 6 6 4 3 2 3 2 3 3 3 5 7 9 8 6 7 7 8 4 7 6 11 17 22 25 21 11 10 11 15 14 11
5 6 6 6 6 9 10 11 10 9 9 9 8 7 5 5 5 4 3 1 2 2 1 3 3 4 4 7 6 7 6 7 3 3 7 6 15 17 22 15 19 23 2 14 12 12 13
3 5 5 5 6 7 9 10 10 9 9 9 8 7 6 5 5 5 3 1 2 3 2 1 2 3 1 4 5 8 7 6 4 3 6 7 9 8 8 9 8 21 5 12 13 15 14
4 3 3 4 5 6 7 9 10 10 9 9 9 7 6 5 4 4 4 2 2 3 4 3 3 4 4 2 3 6 10 9 6 4 1 2 6 6 8 9 10 9 14 6 14 11 9
4 4 3 3 3 4 6 8 8 10 10 10 9 9 8 7 5 5 5 5 4 5 5 5 4 5 4 3 3 3 9 11 9 7 3 5 1 7 1 6 3 3 7 10 11 8 3
5 5 4 4 4 4 5 6 8 9 10 10 10 10 9 9 8 7 8 7 7 7 8 7 7 6 6 7 5 3 4 7 9 8 8 5 4 6 12 11 10 16 17 9 9 5 2
8 8 7 7 6 5 5 5 5 6 7 8 9 10 10 10 11 11 10 9 9 10 10 10 9 9 8 8 7 3 2 5 9 9 7 6 5 9 19 11 7 14 15 19 10 7 7
9 10 10 9 9 9 8 6 5 5 5 6 7 7 7 7 8 9 8 9 10 12 11 12 11 10 9 9 8 5 3 5 8 11 15 13 7 3 3 5 11 11 6 9 3 4 8
12 12 11 10 10 10 10 9 8 7 6 5 5 5 5 6 5 5 5 5 5 5 7 6 7 7 8 9 9 7 6 5 7 11 13 13 12 7 15 13 12 11 14 3 11 6 18
15 14 13 13 12 12 11 11 10 10 9 8 7 6 6 6 5 5 5 4 3 2 2 2 4 6 6 8 10 8 8 7 7 7 10 15 6 10 9 7 12 3 7 6 3 8 10
15 17 17 16 16 14 13 13 12 11 11 10 10 9 8 7 7 7 5 4 4 3 2 3 3 4 6 7 7 9 8 7 6 7 6 9 16 15 6 10 17 12 7 2 8 6 5
16 16 17 19 19 19 18 16 15 13 12 12 11 11 11 10 10 8 8 7 5 4 1 0 1 2 4 5 6 6 6 7 7 6 3 3 3 1 0 4 14 3 19 21 17 7 6
21 19 18 18 19 21 21 21 20 19 17 15 14 13 12 11 11 11 11 9 6 1 4 4 2 2 5 5 5 6 6 5 7 6 7 3 2 2 2 1 4 22 13 13 12 10 8
21 22 23 22 20 19 20 22 23 23 22 21 19 17 16 14 14 14 12 11 7 6 5 17 7 5 5 7 6 6 5 6 6 7 7 11 7 3 6 5 6 17 13 11 4 10 7
22 23 23 24 24 24 21 20 20 23 25 26 25 23 22 20 19 18 16 12 17 18 16 12 18 10 8 7 8 8 7 7 9 9 6 9 6 8 6 6 5 9 10 13 8 7 4
23 23 23 25 25 25 26 25 22 21 22 25 27 27 26 25 25 24 21 14 21 21 21 24 13 3 5 9 11 9 10 8 10 12 10 11 11 8 11 7 7 8 8 12 11 13 5
23 23 23 24 24 24 24 24 25 24 23 23 26 29 27 29 29 28 23 17 23 26 25 24 24 20 16 16 17 19 15 12 12 12 15 15 14 12 15 8 10 10 8 5 10 16 12
25 25 25 24 24 24 24 23 23 24 24 24 24 28 26 31 30 29 25 22 26 31 32 24 26 27 24 25 25 20 18 24 15 20 24 18 20 23 18 10 11 8 12 9 11 15 14
26 26 26 25 25 26 25 24 23 24 25 25 25 25 24 27 27 27 25 26 28 32 34 22 24 28 30 32 29 28 26 25 25 30 29 24 22 22 21 7 13 18 13 14 18 16 16
24 25 26 25 25 25 26 26 25 24 24 25 26 27 27 27 28 30 28 28 30 37 33 29 25 30 30 30 31 31 33 33 34 37 38 32 26 25 24 22 20 20 23 15 19 27 23
23 22 24 25 25 24 24 28 28 27 27 27 29 33 24 26 31 31 30 32 33 38 32 32 30 29 29 29 31 34 35 43 40 41 42 35 27 27 29 24 32 28 22 24 15 11 27
26 26 25 24 23 23 23 25 29 30 31 30 28 27 24 27 26 28 32 34 34 36 35 32 31 32 36 35 35 36 35 37 44 42 36 32 32 31 32 30 33 39 36 32 27 25 25
22 23 24 26 27 25 24 24 25 28 31 31 34 32 30 33 31 31 33 36 36 40 40 36 29 30 34 34 33 31 33 35 38 40 42 39 32 32 32 34 35 37 46 42 44 39 38
18 19 20 22 26 26 26 25 25 27 28 29 33 37 35 31 33 38 40 39 40 42 39 36 33 34 36 34 33 33 35 37 38 39 41 43 39 38 37 36 38 37 37 45 48 55 51
17 17 18 18 19 23 25 26 26 27 28 30 33 34 34 35 39 40 39 38 39 37 34 38 39 35 34 38 38 38 37 38 37 38 39 41 42 42 41 42 40 36 38 40 43 48 51
18 17 18 19 19 19 19 20 22 24 25 26 29 32 36 38 41 38 36 35 37 38 39 42 40 37 36 39 38 39 38 39 39 39 42 42 43 44 43 42 42 43 42 47 44 50 52
17 18 18 19 20 21 21 21 21 21 22 24 26 28 31 35 38 39 35 36 38 40 42 41 40 40 39 40 40 40 39 38 37 38 41 44 44 44 43 41 40 46 46 47 49 52 51
18 19 19 20 20 21 22 23 23 23 23 24 25 25 28 32 33 30 32 36 36 39 40 39 37 37 38 37 37 38 38 38 38 40 40 41 43 40 36 39 40 46 45 45 51 53 53
17 17 18 19 19 21 22 24 26 26 26 26 27 28 27 29 29 31 33 34 36 36 39 37 39 38 34 35 36 34 36 37 37 36 38 36 39 38 39 40 44 44 44 45 46 49 51